Year,Month,Day,Hour,Minute,Value (Times are PST for insolation in W/m^2)
2007,12,05,00,00,0.00
2007,12,05,00,01,0.00
2007,12,05,00,02,0.00
2007,12,05,00,03,0.00
2007,12,05,00,04,0.00
2007,12,05,00,05,0.00
2007,12,05,00,06,0.00
2007,12,05,00,07,0.00
2007,12,05,00,08,0.00
2007,12,05,00,09,0.00
2007,12,05,00,10,0.00
2007,12,05,00,11,0.00
2007,12,05,00,12,0.00
2007,12,05,00,13,0.00
2007,12,05,00,14,0.00
2007,12,05,00,15,0.00
2007,12,05,00,16,0.00
2007,12,05,00,17,0.00
2007,12,05,00,18,0.00
2007,12,05,00,19,0.00
2007,12,05,00,20,0.00
2007,12,05,00,21,0.00
2007,12,05,00,22,0.00
2007,12,05,00,23,0.00
2007,12,05,00,24,0.00
2007,12,05,00,25,0.00
2007,12,05,00,26,0.00
2007,12,05,00,27,0.00
2007,12,05,00,28,0.00
2007,12,05,00,29,0.00
2007,12,05,00,30,0.00
2007,12,05,00,31,0.00
2007,12,05,00,32,0.00
2007,12,05,00,33,0.00
2007,12,05,00,34,0.00
2007,12,05,00,35,0.00
2007,12,05,00,36,0.00
2007,12,05,00,37,0.00
2007,12,05,00,38,0.00
2007,12,05,00,39,0.00
2007,12,05,00,40,0.00
2007,12,05,00,41,0.00
2007,12,05,00,42,0.00
2007,12,05,00,43,0.00
2007,12,05,00,44,0.00
2007,12,05,00,45,0.00
2007,12,05,00,46,0.00
2007,12,05,00,47,0.00
2007,12,05,00,48,0.00
2007,12,05,00,49,0.00
2007,12,05,00,50,0.00
2007,12,05,00,51,0.00
2007,12,05,00,52,0.00
2007,12,05,00,53,0.00
2007,12,05,00,54,0.00
2007,12,05,00,55,0.00
2007,12,05,00,56,0.00
2007,12,05,00,57,0.00
2007,12,05,00,58,0.00
2007,12,05,00,59,0.00
2007,12,05,01,00,0.00
2007,12,05,01,01,0.00
2007,12,05,01,02,0.00
2007,12,05,01,03,0.00
2007,12,05,01,04,0.00
2007,12,05,01,05,0.00
2007,12,05,01,06,0.00
2007,12,05,01,07,0.00
2007,12,05,01,08,0.00
2007,12,05,01,09,0.00
2007,12,05,01,10,0.00
2007,12,05,01,11,0.00
2007,12,05,01,12,0.00
2007,12,05,01,13,0.00
2007,12,05,01,14,0.00
2007,12,05,01,15,0.00
2007,12,05,01,16,0.00
2007,12,05,01,17,0.00
2007,12,05,01,18,0.00
2007,12,05,01,19,0.00
2007,12,05,01,20,0.00
2007,12,05,01,21,0.00
2007,12,05,01,22,0.00
2007,12,05,01,23,0.00
2007,12,05,01,24,0.00
2007,12,05,01,25,0.00
2007,12,05,01,26,0.00
2007,12,05,01,27,0.00
2007,12,05,01,28,0.00
2007,12,05,01,29,0.00
2007,12,05,01,30,0.00
2007,12,05,01,31,0.00
2007,12,05,01,32,0.00
2007,12,05,01,33,0.00
2007,12,05,01,34,0.00
2007,12,05,01,35,0.00
2007,12,05,01,36,0.00
2007,12,05,01,37,0.00
2007,12,05,01,38,0.00
2007,12,05,01,39,0.00
2007,12,05,01,40,0.00
2007,12,05,01,41,0.00
2007,12,05,01,42,0.00
2007,12,05,01,43,0.00
2007,12,05,01,44,0.00
2007,12,05,01,45,0.00
2007,12,05,01,46,0.00
2007,12,05,01,47,0.00
2007,12,05,01,48,0.00
2007,12,05,01,49,0.00
2007,12,05,01,50,0.00
2007,12,05,01,51,0.00
2007,12,05,01,52,0.00
2007,12,05,01,53,0.00
2007,12,05,01,54,0.00
2007,12,05,01,55,0.00
2007,12,05,01,56,0.00
2007,12,05,01,57,0.00
2007,12,05,01,58,0.00
2007,12,05,01,59,0.00
2007,12,05,02,00,0.00
2007,12,05,02,01,0.00
2007,12,05,02,02,0.00
2007,12,05,02,03,0.00
2007,12,05,02,04,0.00
2007,12,05,02,05,0.00
2007,12,05,02,06,0.00
2007,12,05,02,07,0.00
2007,12,05,02,08,0.00
2007,12,05,02,09,0.00
2007,12,05,02,10,0.00
2007,12,05,02,11,0.00
2007,12,05,02,12,0.00
2007,12,05,02,13,0.00
2007,12,05,02,14,0.00
2007,12,05,02,15,0.00
2007,12,05,02,16,0.00
2007,12,05,02,17,0.00
2007,12,05,02,18,0.00
2007,12,05,02,19,0.00
2007,12,05,02,20,0.00
2007,12,05,02,21,0.00
2007,12,05,02,22,0.00
2007,12,05,02,23,0.00
2007,12,05,02,24,0.00
2007,12,05,02,25,0.00
2007,12,05,02,26,0.00
2007,12,05,02,27,0.00
2007,12,05,02,28,0.00
2007,12,05,02,29,0.00
2007,12,05,02,30,0.00
2007,12,05,02,31,0.00
2007,12,05,02,32,0.00
2007,12,05,02,33,0.00
2007,12,05,02,34,0.00
2007,12,05,02,35,0.00
2007,12,05,02,36,0.00
2007,12,05,02,37,0.00
2007,12,05,02,38,0.00
2007,12,05,02,39,0.00
2007,12,05,02,40,0.00
2007,12,05,02,41,0.00
2007,12,05,02,42,0.00
2007,12,05,02,43,0.00
2007,12,05,02,44,0.00
2007,12,05,02,45,0.00
2007,12,05,02,46,0.00
2007,12,05,02,47,0.00
2007,12,05,02,48,0.00
2007,12,05,02,49,0.00
2007,12,05,02,50,0.00
2007,12,05,02,51,0.00
2007,12,05,02,52,0.00
2007,12,05,02,53,0.00
2007,12,05,02,54,0.00
2007,12,05,02,55,0.00
2007,12,05,02,56,0.00
2007,12,05,02,57,0.00
2007,12,05,02,58,0.00
2007,12,05,02,59,0.00
2007,12,05,03,00,0.00
2007,12,05,03,01,0.00
2007,12,05,03,02,0.00
2007,12,05,03,03,0.00
2007,12,05,03,04,0.00
2007,12,05,03,05,0.00
2007,12,05,03,06,0.00
2007,12,05,03,07,0.00
2007,12,05,03,08,0.00
2007,12,05,03,09,0.00
2007,12,05,03,10,0.00
2007,12,05,03,11,0.00
2007,12,05,03,12,0.00
2007,12,05,03,13,0.00
2007,12,05,03,14,0.00
2007,12,05,03,15,0.00
2007,12,05,03,16,0.00
2007,12,05,03,17,0.00
2007,12,05,03,18,0.00
2007,12,05,03,19,0.00
2007,12,05,03,20,0.00
2007,12,05,03,21,0.00
2007,12,05,03,22,0.00
2007,12,05,03,23,0.00
2007,12,05,03,24,0.00
2007,12,05,03,25,0.00
2007,12,05,03,26,0.00
2007,12,05,03,27,0.00
2007,12,05,03,28,0.00
2007,12,05,03,29,0.00
2007,12,05,03,30,0.00
2007,12,05,03,31,0.00
2007,12,05,03,32,0.00
2007,12,05,03,33,0.00
2007,12,05,03,34,0.00
2007,12,05,03,35,0.00
2007,12,05,03,36,0.00
2007,12,05,03,37,0.00
2007,12,05,03,38,0.00
2007,12,05,03,39,0.00
2007,12,05,03,40,0.00
2007,12,05,03,41,0.00
2007,12,05,03,42,0.00
2007,12,05,03,43,0.00
2007,12,05,03,44,0.00
2007,12,05,03,45,0.00
2007,12,05,03,46,0.00
2007,12,05,03,47,0.00
2007,12,05,03,48,0.00
2007,12,05,03,49,0.00
2007,12,05,03,50,0.00
2007,12,05,03,51,0.00
2007,12,05,03,52,0.00
2007,12,05,03,53,0.00
2007,12,05,03,54,0.00
2007,12,05,03,55,0.00
2007,12,05,03,56,0.00
2007,12,05,03,57,0.00
2007,12,05,03,58,0.00
2007,12,05,03,59,0.00
2007,12,05,04,00,0.00
2007,12,05,04,01,0.00
2007,12,05,04,02,0.00
2007,12,05,04,03,0.00
2007,12,05,04,04,0.00
2007,12,05,04,05,0.00
2007,12,05,04,06,0.00
2007,12,05,04,07,0.00
2007,12,05,04,08,0.00
2007,12,05,04,09,0.00
2007,12,05,04,10,0.00
2007,12,05,04,11,0.00
2007,12,05,04,12,0.00
2007,12,05,04,13,0.00
2007,12,05,04,14,0.00
2007,12,05,04,15,0.00
2007,12,05,04,16,0.00
2007,12,05,04,17,0.00
2007,12,05,04,18,0.00
2007,12,05,04,19,0.00
2007,12,05,04,20,0.00
2007,12,05,04,21,0.00
2007,12,05,04,22,0.00
2007,12,05,04,23,0.00
2007,12,05,04,24,0.00
2007,12,05,04,25,0.00
2007,12,05,04,26,0.00
2007,12,05,04,27,0.00
2007,12,05,04,28,0.00
2007,12,05,04,29,0.00
2007,12,05,04,30,0.00
2007,12,05,04,31,0.00
2007,12,05,04,32,0.00
2007,12,05,04,33,0.00
2007,12,05,04,34,0.00
2007,12,05,04,35,0.00
2007,12,05,04,36,0.00
2007,12,05,04,37,0.00
2007,12,05,04,38,0.00
2007,12,05,04,39,0.00
2007,12,05,04,40,0.00
2007,12,05,04,41,0.00
2007,12,05,04,42,0.00
2007,12,05,04,43,0.00
2007,12,05,04,44,0.00
2007,12,05,04,45,0.00
2007,12,05,04,46,0.00
2007,12,05,04,47,0.00
2007,12,05,04,48,0.00
2007,12,05,04,49,0.00
2007,12,05,04,50,0.00
2007,12,05,04,51,0.00
2007,12,05,04,52,0.00
2007,12,05,04,53,0.00
2007,12,05,04,54,0.00
2007,12,05,04,55,0.00
2007,12,05,04,56,0.00
2007,12,05,04,57,0.00
2007,12,05,04,58,0.00
2007,12,05,04,59,0.00
2007,12,05,05,00,0.00
2007,12,05,05,01,0.00
2007,12,05,05,02,0.00
2007,12,05,05,03,0.00
2007,12,05,05,04,0.00
2007,12,05,05,05,0.00
2007,12,05,05,06,0.00
2007,12,05,05,07,0.00
2007,12,05,05,08,0.00
2007,12,05,05,09,0.00
2007,12,05,05,10,0.00
2007,12,05,05,11,0.00
2007,12,05,05,12,0.00
2007,12,05,05,13,0.00
2007,12,05,05,14,0.00
2007,12,05,05,15,0.00
2007,12,05,05,16,0.00
2007,12,05,05,17,0.00
2007,12,05,05,18,0.00
2007,12,05,05,19,0.00
2007,12,05,05,20,0.00
2007,12,05,05,21,0.00
2007,12,05,05,22,0.00
2007,12,05,05,23,0.00
2007,12,05,05,24,0.00
2007,12,05,05,25,0.00
2007,12,05,05,26,0.00
2007,12,05,05,27,0.00
2007,12,05,05,28,0.00
2007,12,05,05,29,0.00
2007,12,05,05,30,0.00
2007,12,05,05,31,0.00
2007,12,05,05,32,0.00
2007,12,05,05,33,0.00
2007,12,05,05,34,0.00
2007,12,05,05,35,0.00
2007,12,05,05,36,0.00
2007,12,05,05,37,0.00
2007,12,05,05,38,0.00
2007,12,05,05,39,0.00
2007,12,05,05,40,0.00
2007,12,05,05,41,0.00
2007,12,05,05,42,0.00
2007,12,05,05,43,0.00
2007,12,05,05,44,0.00
2007,12,05,05,45,0.00
2007,12,05,05,46,0.00
2007,12,05,05,47,0.00
2007,12,05,05,48,0.00
2007,12,05,05,49,0.00
2007,12,05,05,50,0.00
2007,12,05,05,51,0.00
2007,12,05,05,52,0.00
2007,12,05,05,53,0.00
2007,12,05,05,54,0.00
2007,12,05,05,55,0.00
2007,12,05,05,56,0.00
2007,12,05,05,57,0.00
2007,12,05,05,58,0.00
2007,12,05,05,59,0.00
2007,12,05,06,00,0.00
2007,12,05,06,01,0.00
2007,12,05,06,02,0.00
2007,12,05,06,03,0.00
2007,12,05,06,04,0.00
2007,12,05,06,05,0.00
2007,12,05,06,06,0.00
2007,12,05,06,07,0.00
2007,12,05,06,08,0.00
2007,12,05,06,09,0.00
2007,12,05,06,10,0.00
2007,12,05,06,11,0.00
2007,12,05,06,12,0.00
2007,12,05,06,13,0.00
2007,12,05,06,14,0.00
2007,12,05,06,15,0.00
2007,12,05,06,16,0.00
2007,12,05,06,17,0.00
2007,12,05,06,18,0.00
2007,12,05,06,19,0.00
2007,12,05,06,20,0.00
2007,12,05,06,21,0.00
2007,12,05,06,22,0.00
2007,12,05,06,23,0.00
2007,12,05,06,24,0.00
2007,12,05,06,25,0.00
2007,12,05,06,26,0.00
2007,12,05,06,27,0.00
2007,12,05,06,28,0.00
2007,12,05,06,29,0.00
2007,12,05,06,30,0.00
2007,12,05,06,31,0.00
2007,12,05,06,32,0.00
2007,12,05,06,33,0.00
2007,12,05,06,34,0.00
2007,12,05,06,35,0.00
2007,12,05,06,36,0.00
2007,12,05,06,37,0.00
2007,12,05,06,38,0.00
2007,12,05,06,39,0.00
2007,12,05,06,40,0.00
2007,12,05,06,41,0.00
2007,12,05,06,42,0.00
2007,12,05,06,43,0.00
2007,12,05,06,44,0.00
2007,12,05,06,45,0.00
2007,12,05,06,46,0.00
2007,12,05,06,47,0.00
2007,12,05,06,48,0.00
2007,12,05,06,49,0.00
2007,12,05,06,50,0.00
2007,12,05,06,51,0.00
2007,12,05,06,52,0.00
2007,12,05,06,53,0.00
2007,12,05,06,54,0.00
2007,12,05,06,55,0.00
2007,12,05,06,56,0.00
2007,12,05,06,57,0.00
2007,12,05,06,58,0.00
2007,12,05,06,59,0.00
2007,12,05,07,00,0.00
2007,12,05,07,01,0.00
2007,12,05,07,02,0.00
2007,12,05,07,03,0.00
2007,12,05,07,04,0.00
2007,12,05,07,05,0.00
2007,12,05,07,06,0.00
2007,12,05,07,07,0.00
2007,12,05,07,08,0.00
2007,12,05,07,09,0.00
2007,12,05,07,10,0.00
2007,12,05,07,11,0.00
2007,12,05,07,12,0.00
2007,12,05,07,13,0.00
2007,12,05,07,14,0.00
2007,12,05,07,15,0.00
2007,12,05,07,16,0.00
2007,12,05,07,17,0.00
2007,12,05,07,18,0.00
2007,12,05,07,19,0.00
2007,12,05,07,20,0.00
2007,12,05,07,21,0.00
2007,12,05,07,22,0.00
2007,12,05,07,23,0.00
2007,12,05,07,24,0.00
2007,12,05,07,25,0.00
2007,12,05,07,26,0.00
2007,12,05,07,27,0.00
2007,12,05,07,28,0.00
2007,12,05,07,29,0.00
2007,12,05,07,30,0.00
2007,12,05,07,31,0.00
2007,12,05,07,32,0.00
2007,12,05,07,33,0.00
2007,12,05,07,34,0.00
2007,12,05,07,35,0.00
2007,12,05,07,36,0.00
2007,12,05,07,37,0.00
2007,12,05,07,38,0.00
2007,12,05,07,39,0.00
2007,12,05,07,40,0.00
2007,12,05,07,41,0.00
2007,12,05,07,42,0.00
2007,12,05,07,43,0.00
2007,12,05,07,44,0.00
2007,12,05,07,45,0.00
2007,12,05,07,46,0.00
2007,12,05,07,47,0.00
2007,12,05,07,48,0.00
2007,12,05,07,49,0.00
2007,12,05,07,50,2.30
2007,12,05,07,51,5.00
2007,12,05,07,52,5.00
2007,12,05,07,53,5.00
2007,12,05,07,54,5.00
2007,12,05,07,55,5.00
2007,12,05,07,56,5.00
2007,12,05,07,57,6.30
2007,12,05,07,58,7.00
2007,12,05,07,59,7.00
2007,12,05,08,00,7.00
2007,12,05,08,01,7.00
2007,12,05,08,02,7.00
2007,12,05,08,03,8.50
2007,12,05,08,04,9.00
2007,12,05,08,05,9.00
2007,12,05,08,06,9.00
2007,12,05,08,07,9.00
2007,12,05,08,08,9.00
2007,12,05,08,09,9.00
2007,12,05,08,10,9.00
2007,12,05,08,11,9.00
2007,12,05,08,12,9.00
2007,12,05,08,13,9.00
2007,12,05,08,14,9.00
2007,12,05,08,15,10.40
2007,12,05,08,16,11.00
2007,12,05,08,17,11.00
2007,12,05,08,18,11.00
2007,12,05,08,19,11.00
2007,12,05,08,20,11.00
2007,12,05,08,21,11.00
2007,12,05,08,22,11.90
2007,12,05,08,23,12.00
2007,12,05,08,24,12.00
2007,12,05,08,25,12.90
2007,12,05,08,26,14.00
2007,12,05,08,27,14.00
2007,12,05,08,28,14.00
2007,12,05,08,29,14.00
2007,12,05,08,30,14.00
2007,12,05,08,31,14.00
2007,12,05,08,32,15.40
2007,12,05,08,33,16.00
2007,12,05,08,34,16.00
2007,12,05,08,35,16.00
2007,12,05,08,36,16.70
2007,12,05,08,37,18.00
2007,12,05,08,38,18.70
2007,12,05,08,39,19.00
2007,12,05,08,40,21.10
2007,12,05,08,41,24.10
2007,12,05,08,42,28.60
2007,12,05,08,43,30.00
2007,12,05,08,44,30.00
2007,12,05,08,45,38.40
2007,12,05,08,46,59.60
2007,12,05,08,47,93.50
2007,12,05,08,48,95.00
2007,12,05,08,49,90.00
2007,12,05,08,50,83.80
2007,12,05,08,51,93.70
2007,12,05,08,52,114.20
2007,12,05,08,53,115.50
2007,12,05,08,54,114.00
2007,12,05,08,55,115.10
2007,12,05,08,56,117.30
2007,12,05,08,57,119.80
2007,12,05,08,58,121.40
2007,12,05,08,59,125.60
2007,12,05,09,00,128.40
2007,12,05,09,01,131.30
2007,12,05,09,02,133.60
2007,12,05,09,03,136.80
2007,12,05,09,04,139.30
2007,12,05,09,05,143.10
2007,12,05,09,06,147.50
2007,12,05,09,07,153.10
2007,12,05,09,08,157.50
2007,12,05,09,09,162.70
2007,12,05,09,10,172.00
2007,12,05,09,11,180.40
2007,12,05,09,12,190.50
2007,12,05,09,13,200.90
2007,12,05,09,14,208.20
2007,12,05,09,15,209.40
2007,12,05,09,16,208.20
2007,12,05,09,17,194.00
2007,12,05,09,18,221.40
2007,12,05,09,19,223.00
2007,12,05,09,20,226.30
2007,12,05,09,21,225.00
2007,12,05,09,22,221.00
2007,12,05,09,23,221.80
2007,12,05,09,24,219.70
2007,12,05,09,25,218.70
2007,12,05,09,26,226.20
2007,12,05,09,27,224.80
2007,12,05,09,28,220.20
2007,12,05,09,29,221.80
2007,12,05,09,30,232.00
2007,12,05,09,31,231.50
2007,12,05,09,32,215.60
2007,12,05,09,33,215.00
2007,12,05,09,34,225.60
2007,12,05,09,35,249.60
2007,12,05,09,36,279.40
2007,12,05,09,37,265.10
2007,12,05,09,38,230.30
2007,12,05,09,39,205.50
2007,12,05,09,40,190.80
2007,12,05,09,41,179.70
2007,12,05,09,42,166.60
2007,12,05,09,43,164.40
2007,12,05,09,44,176.90
2007,12,05,09,45,180.20
2007,12,05,09,46,185.60
2007,12,05,09,47,179.60
2007,12,05,09,48,178.00
2007,12,05,09,49,173.20
2007,12,05,09,50,239.10
2007,12,05,09,51,258.80
2007,12,05,09,52,238.60
2007,12,05,09,53,206.90
2007,12,05,09,54,184.70
2007,12,05,09,55,201.60
2007,12,05,09,56,118.60
2007,12,05,09,57,130.00
2007,12,05,09,58,177.90
2007,12,05,09,59,275.00
2007,12,05,10,00,290.00
2007,12,05,10,01,290.00
2007,12,05,10,02,340.30
2007,12,05,10,03,356.60
2007,12,05,10,04,356.50
2007,12,05,10,05,359.00
2007,12,05,10,06,294.00
2007,12,05,10,07,316.10
2007,12,05,10,08,345.70
2007,12,05,10,09,343.00
2007,12,05,10,10,335.80
2007,12,05,10,11,314.40
2007,12,05,10,12,293.00
2007,12,05,10,13,270.90
2007,12,05,10,14,259.50
2007,12,05,10,15,254.50
2007,12,05,10,16,253.00
2007,12,05,10,17,254.00
2007,12,05,10,18,255.00
2007,12,05,10,19,256.60
2007,12,05,10,20,257.10
2007,12,05,10,21,258.70
2007,12,05,10,22,260.00
2007,12,05,10,23,262.40
2007,12,05,10,24,264.80
2007,12,05,10,25,265.00
2007,12,05,10,26,269.30
2007,12,05,10,27,271.30
2007,12,05,10,28,273.00
2007,12,05,10,29,276.40
2007,12,05,10,30,280.40
2007,12,05,10,31,285.00
2007,12,05,10,32,288.30
2007,12,05,10,33,291.30
2007,12,05,10,34,296.60
2007,12,05,10,35,302.30
2007,12,05,10,36,307.80
2007,12,05,10,37,314.50
2007,12,05,10,38,324.20
2007,12,05,10,39,332.30
2007,12,05,10,40,338.50
2007,12,05,10,41,305.50
2007,12,05,10,42,321.30
2007,12,05,10,43,321.20
2007,12,05,10,44,163.00
2007,12,05,10,45,193.30
2007,12,05,10,46,241.00
2007,12,05,10,47,213.80
2007,12,05,10,48,168.70
2007,12,05,10,49,117.30
2007,12,05,10,50,90.30
2007,12,05,10,51,77.50
2007,12,05,10,52,66.80
2007,12,05,10,53,62.30
2007,12,05,10,54,66.40
2007,12,05,10,55,91.30
2007,12,05,10,56,154.90
2007,12,05,10,57,140.60
2007,12,05,10,58,88.20
2007,12,05,10,59,60.50
2007,12,05,11,00,66.10
2007,12,05,11,01,93.50
2007,12,05,11,02,178.40
2007,12,05,11,03,230.00
2007,12,05,11,04,171.90
2007,12,05,11,05,121.60
2007,12,05,11,06,111.40
2007,12,05,11,07,113.20
2007,12,05,11,08,114.50
2007,12,05,11,09,116.00
2007,12,05,11,10,192.70
2007,12,05,11,11,184.30
2007,12,05,11,12,196.70
2007,12,05,11,13,163.00
2007,12,05,11,14,217.90
2007,12,05,11,15,332.10
2007,12,05,11,16,345.10
2007,12,05,11,17,349.20
2007,12,05,11,18,345.60
2007,12,05,11,19,357.60
2007,12,05,11,20,324.60
2007,12,05,11,21,264.00
2007,12,05,11,22,264.00
2007,12,05,11,23,264.00
2007,12,05,11,24,113.20
2007,12,05,11,25,91.80
2007,12,05,11,26,69.00
2007,12,05,11,27,78.10
2007,12,05,11,28,75.00
2007,12,05,11,29,63.90
2007,12,05,11,30,70.40
2007,12,05,11,31,208.70
2007,12,05,11,32,149.00
2007,12,05,11,33,252.10
2007,12,05,11,34,327.00
2007,12,05,11,35,327.00
2007,12,05,11,36,329.10
2007,12,05,11,37,330.00
2007,12,05,11,38,330.00
2007,12,05,11,39,330.00
2007,12,05,11,40,330.00
2007,12,05,11,41,330.00
2007,12,05,11,42,330.20
2007,12,05,11,43,331.40
2007,12,05,11,44,330.00
2007,12,05,11,45,331.10
2007,12,05,11,46,332.00
2007,12,05,11,47,332.00
2007,12,05,11,48,332.00
2007,12,05,11,49,332.50
2007,12,05,11,50,333.10
2007,12,05,11,51,333.20
2007,12,05,11,52,334.00
2007,12,05,11,53,334.00
2007,12,05,11,54,334.00
2007,12,05,11,55,322.90
2007,12,05,11,56,279.10
2007,12,05,11,57,308.30
2007,12,05,11,58,286.80
2007,12,05,11,59,299.80
2007,12,05,12,00,339.90
2007,12,05,12,01,335.30
2007,12,05,12,02,337.50
2007,12,05,12,03,339.10
2007,12,05,12,04,316.80
2007,12,05,12,05,345.10
2007,12,05,12,06,329.00
2007,12,05,12,07,238.40
2007,12,05,12,08,83.00
2007,12,05,12,09,251.30
2007,12,05,12,10,329.00
2007,12,05,12,11,320.10
2007,12,05,12,12,151.00
2007,12,05,12,13,234.10
2007,12,05,12,14,338.50
2007,12,05,12,15,338.20
2007,12,05,12,16,338.90
2007,12,05,12,17,340.60
2007,12,05,12,18,337.40
2007,12,05,12,19,335.10
2007,12,05,12,20,332.70
2007,12,05,12,21,330.40
2007,12,05,12,22,330.00
2007,12,05,12,23,331.90
2007,12,05,12,24,332.00
2007,12,05,12,25,336.00
2007,12,05,12,26,342.00
2007,12,05,12,27,336.20
2007,12,05,12,28,334.00
2007,12,05,12,29,332.60
2007,12,05,12,30,334.70
2007,12,05,12,31,331.10
2007,12,05,12,32,330.00
2007,12,05,12,33,330.00
2007,12,05,12,34,331.90
2007,12,05,12,35,307.20
2007,12,05,12,36,248.00
2007,12,05,12,37,230.10
2007,12,05,12,38,158.10
2007,12,05,12,39,172.60
2007,12,05,12,40,166.40
2007,12,05,12,41,116.20
2007,12,05,12,42,90.70
2007,12,05,12,43,72.60
2007,12,05,12,44,79.10
2007,12,05,12,45,72.00
2007,12,05,12,46,65.50
2007,12,05,12,47,77.60
2007,12,05,12,48,93.00
2007,12,05,12,49,216.00
2007,12,05,12,50,339.00
2007,12,05,12,51,253.70
2007,12,05,12,52,227.00
2007,12,05,12,53,212.30
2007,12,05,12,54,171.00
2007,12,05,12,55,269.30
2007,12,05,12,56,348.00
2007,12,05,12,57,345.30
2007,12,05,12,58,331.80
2007,12,05,12,59,331.10
2007,12,05,13,00,335.80
2007,12,05,13,01,340.60
2007,12,05,13,02,346.80
2007,12,05,13,03,352.50
2007,12,05,13,04,345.40
2007,12,05,13,05,280.60
2007,12,05,13,06,106.30
2007,12,05,13,07,97.40
2007,12,05,13,08,99.20
2007,12,05,13,09,98.10
2007,12,05,13,10,108.30
2007,12,05,13,11,121.70
2007,12,05,13,12,136.30
2007,12,05,13,13,94.80
2007,12,05,13,14,90.80
2007,12,05,13,15,86.20
2007,12,05,13,16,115.90
2007,12,05,13,17,94.90
2007,12,05,13,18,125.50
2007,12,05,13,19,128.70
2007,12,05,13,20,129.00
2007,12,05,13,21,142.50
2007,12,05,13,22,104.70
2007,12,05,13,23,117.50
2007,12,05,13,24,128.70
2007,12,05,13,25,132.00
2007,12,05,13,26,140.30
2007,12,05,13,27,149.70
2007,12,05,13,28,302.70
2007,12,05,13,29,349.60
2007,12,05,13,30,340.40
2007,12,05,13,31,357.80
2007,12,05,13,32,357.30
2007,12,05,13,33,349.90
2007,12,05,13,34,344.60
2007,12,05,13,35,344.90
2007,12,05,13,36,349.20
2007,12,05,13,37,346.50
2007,12,05,13,38,338.70
2007,12,05,13,39,325.40
2007,12,05,13,40,288.50
2007,12,05,13,41,261.20
2007,12,05,13,42,306.90
2007,12,05,13,43,301.50
2007,12,05,13,44,294.50
2007,12,05,13,45,291.90
2007,12,05,13,46,291.10
2007,12,05,13,47,294.40
2007,12,05,13,48,295.00
2007,12,05,13,49,294.30
2007,12,05,13,50,292.40
2007,12,05,13,51,290.00
2007,12,05,13,52,290.00
2007,12,05,13,53,288.60
2007,12,05,13,54,285.60
2007,12,05,13,55,282.10
2007,12,05,13,56,281.00
2007,12,05,13,57,284.20
2007,12,05,13,58,278.70
2007,12,05,13,59,271.50
2007,12,05,14,00,266.60
2007,12,05,14,01,264.20
2007,12,05,14,02,262.00
2007,12,05,14,03,261.70
2007,12,05,14,04,258.90
2007,12,05,14,05,255.90
2007,12,05,14,06,253.70
2007,12,05,14,07,254.70
2007,12,05,14,08,258.90
2007,12,05,14,09,240.30
2007,12,05,14,10,174.70
2007,12,05,14,11,116.00
2007,12,05,14,12,236.60
2007,12,05,14,13,287.50
2007,12,05,14,14,290.20
2007,12,05,14,15,290.90
2007,12,05,14,16,288.00
2007,12,05,14,17,288.00
2007,12,05,14,18,205.50
2007,12,05,14,19,167.00
2007,12,05,14,20,264.50
2007,12,05,14,21,268.10
2007,12,05,14,22,265.00
2007,12,05,14,23,268.30
2007,12,05,14,24,264.20
2007,12,05,14,25,255.40
2007,12,05,14,26,186.90
2007,12,05,14,27,197.80
2007,12,05,14,28,190.60
2007,12,05,14,29,168.60
2007,12,05,14,30,155.10
2007,12,05,14,31,157.00
2007,12,05,14,32,185.90
2007,12,05,14,33,230.40
2007,12,05,14,34,237.10
2007,12,05,14,35,179.90
2007,12,05,14,36,123.00
2007,12,05,14,37,181.40
2007,12,05,14,38,239.40
2007,12,05,14,39,236.60
2007,12,05,14,40,229.50
2007,12,05,14,41,226.70
2007,12,05,14,42,221.60
2007,12,05,14,43,219.80
2007,12,05,14,44,214.00
2007,12,05,14,45,188.60
2007,12,05,14,46,162.10
2007,12,05,14,47,125.60
2007,12,05,14,48,158.20
2007,12,05,14,49,164.70
2007,12,05,14,50,56.90
2007,12,05,14,51,52.30
2007,12,05,14,52,50.00
2007,12,05,14,53,49.00
2007,12,05,14,54,49.00
2007,12,05,14,55,49.00
2007,12,05,14,56,48.60
2007,12,05,14,57,47.80
2007,12,05,14,58,50.20
2007,12,05,14,59,54.60
2007,12,05,15,00,64.00
2007,12,05,15,01,132.50
2007,12,05,15,02,131.40
2007,12,05,15,03,97.00
2007,12,05,15,04,83.00
2007,12,05,15,05,102.10
2007,12,05,15,06,119.10
2007,12,05,15,07,128.50
2007,12,05,15,08,141.80
2007,12,05,15,09,149.20
2007,12,05,15,10,141.00
2007,12,05,15,11,152.10
2007,12,05,15,12,136.40
2007,12,05,15,13,97.70
2007,12,05,15,14,82.30
2007,12,05,15,15,85.10
2007,12,05,15,16,74.00
2007,12,05,15,17,111.60
2007,12,05,15,18,128.80
2007,12,05,15,19,117.20
2007,12,05,15,20,122.70
2007,12,05,15,21,111.50
2007,12,05,15,22,126.00
2007,12,05,15,23,114.50
2007,12,05,15,24,95.00
2007,12,05,15,25,106.70
2007,12,05,15,26,109.40
2007,12,05,15,27,98.50
2007,12,05,15,28,77.30
2007,12,05,15,29,69.20
2007,12,05,15,30,68.80
2007,12,05,15,31,67.00
2007,12,05,15,32,66.20
2007,12,05,15,33,65.00
2007,12,05,15,34,63.60
2007,12,05,15,35,63.00
2007,12,05,15,36,61.80
2007,12,05,15,37,58.50
2007,12,05,15,38,52.90
2007,12,05,15,39,49.80
2007,12,05,15,40,47.60
2007,12,05,15,41,47.00
2007,12,05,15,42,46.90
2007,12,05,15,43,46.00
2007,12,05,15,44,45.20
2007,12,05,15,45,44.00
2007,12,05,15,46,44.00
2007,12,05,15,47,44.00
2007,12,05,15,48,43.70
2007,12,05,15,49,42.00
2007,12,05,15,50,41.20
2007,12,05,15,51,39.40
2007,12,05,15,52,39.00
2007,12,05,15,53,35.20
2007,12,05,15,54,33.60
2007,12,05,15,55,35.90
2007,12,05,15,56,32.60
2007,12,05,15,57,30.80
2007,12,05,15,58,28.60
2007,12,05,15,59,23.20
2007,12,05,16,00,20.70
2007,12,05,16,01,19.00
2007,12,05,16,02,19.00
2007,12,05,16,03,18.30
2007,12,05,16,04,18.00
2007,12,05,16,05,17.90
2007,12,05,16,06,16.00
2007,12,05,16,07,16.00
2007,12,05,16,08,14.90
2007,12,05,16,09,14.00
2007,12,05,16,10,14.00
2007,12,05,16,11,12.10
2007,12,05,16,12,11.00
2007,12,05,16,13,10.20
2007,12,05,16,14,9.00
2007,12,05,16,15,9.00
2007,12,05,16,16,9.00
2007,12,05,16,17,7.00
2007,12,05,16,18,7.00
2007,12,05,16,19,7.00
2007,12,05,16,20,6.00
2007,12,05,16,21,5.00
2007,12,05,16,22,5.00
2007,12,05,16,23,0.00
2007,12,05,16,24,0.00
2007,12,05,16,25,0.00
2007,12,05,16,26,0.00
2007,12,05,16,27,0.00
2007,12,05,16,28,0.00
2007,12,05,16,29,0.00
2007,12,05,16,30,0.00
2007,12,05,16,31,0.00
2007,12,05,16,32,0.00
2007,12,05,16,33,0.00
2007,12,05,16,34,0.00
2007,12,05,16,35,0.00
2007,12,05,16,36,0.00
2007,12,05,16,37,0.00
2007,12,05,16,38,0.00
2007,12,05,16,39,0.00
2007,12,05,16,40,0.00
2007,12,05,16,41,0.00
2007,12,05,16,42,0.00
2007,12,05,16,43,0.00
2007,12,05,16,44,0.00
2007,12,05,16,45,0.00
2007,12,05,16,46,0.00
2007,12,05,16,47,0.00
2007,12,05,16,48,0.00
2007,12,05,16,49,0.00
2007,12,05,16,50,0.00
2007,12,05,16,51,0.00
2007,12,05,16,52,0.00
2007,12,05,16,53,0.00
2007,12,05,16,54,0.00
2007,12,05,16,55,0.00
2007,12,05,16,56,0.00
2007,12,05,16,57,0.00
2007,12,05,16,58,0.00
2007,12,05,16,59,0.00
2007,12,05,17,00,0.00
2007,12,05,17,01,0.00
2007,12,05,17,02,0.00
2007,12,05,17,03,0.00
2007,12,05,17,04,0.00
2007,12,05,17,05,0.00
2007,12,05,17,06,0.00
2007,12,05,17,07,0.00
2007,12,05,17,08,0.00
2007,12,05,17,09,0.00
2007,12,05,17,10,0.00
2007,12,05,17,11,0.00
2007,12,05,17,12,0.00
2007,12,05,17,13,0.00
2007,12,05,17,14,0.00
2007,12,05,17,15,0.00
2007,12,05,17,16,0.00
2007,12,05,17,17,0.00
2007,12,05,17,18,0.00
2007,12,05,17,19,0.00
2007,12,05,17,20,0.00
2007,12,05,17,21,0.00
2007,12,05,17,22,0.00
2007,12,05,17,23,0.00
2007,12,05,17,24,0.00
2007,12,05,17,25,0.00
2007,12,05,17,26,0.00
2007,12,05,17,27,0.00
2007,12,05,17,28,0.00
2007,12,05,17,29,0.00